TimeEST,TemperatureF,Dew PointF,Humidity,Sea Level PressureIn,VisibilityMPH,Wind Direction,Wind SpeedMPH,Gust SpeedMPH,PrecipitationIn,Events,Conditions,WindDirDegrees,DateUTC
12:53 AM,46.0,42.1,86,30.29,10.0,Calm,Calm,-,N/A,,Partly Cloudy,0,2013-01-25 05:53:00
1:53 AM,50.0,45.0,83,30.29,10.0,Calm,Calm,-,N/A,,Overcast,0,2013-01-25 06:53:00
2:53 AM,55.9,45.0,67,30.29,10.0,ENE,4.6,-,N/A,,Overcast,70,2013-01-25 07:53:00
3:53 AM,57.0,39.9,53,30.30,10.0,East,5.8,-,N/A,,Overcast,80,2013-01-25 08:53:00
4:53 AM,55.9,39.9,55,30.29,10.0,East,6.9,-,N/A,,Overcast,80,2013-01-25 09:53:00
5:53 AM,55.0,43.0,64,30.29,10.0,East,6.9,-,N/A,,Overcast,80,2013-01-25 10:53:00
6:53 AM,53.1,45.0,74,30.30,10.0,East,9.2,-,N/A,,Overcast,100,2013-01-25 11:53:00
7:53 AM,51.1,45.0,80,30.31,10.0,ESE,5.8,-,N/A,,Partly Cloudy,110,2013-01-25 12:53:00
8:53 AM,54.0,46.0,75,30.32,10.0,SE,8.1,-,N/A,,Clear,130,2013-01-25 13:53:00
9:53 AM,57.9,46.9,67,30.34,10.0,East,3.5,-,N/A,,Clear,100,2013-01-25 14:53:00
10:53 AM,60.1,46.9,62,30.34,10.0,Calm,Calm,-,N/A,,Clear,0,2013-01-25 15:53:00
11:53 AM,64.9,48.0,54,30.31,10.0,Variable,4.6,-,N/A,,Clear,0,2013-01-25 16:53:00
12:53 PM,69.1,48.9,49,30.27,10.0,South,9.2,-,N/A,,Clear,190,2013-01-25 17:53:00
1:53 PM,70.0,48.0,46,30.22,10.0,South,10.4,17.3,N/A,,Partly Cloudy,190,2013-01-25 18:53:00
2:53 PM,72.0,46.0,40,30.21,10.0,WSW,10.4,-,N/A,,Scattered Clouds,240,2013-01-25 19:53:00
3:53 PM,70.0,45.0,41,30.21,10.0,SSW,12.7,-,N/A,,Partly Cloudy,210,2013-01-25 20:53:00
4:53 PM,70.0,45.0,41,30.21,10.0,SSW,11.5,-,N/A,,Partly Cloudy,200,2013-01-25 21:53:00
5:53 PM,68.0,48.0,49,30.19,10.0,SSW,8.1,-,N/A,,Clear,200,2013-01-25 22:53:00
6:53 PM,63.0,48.0,58,30.20,10.0,South,4.6,-,N/A,,Clear,190,2013-01-25 23:53:00
7:53 PM,60.1,50.0,69,30.20,10.0,SSW,4.6,-,N/A,,Clear,210,2013-01-26 00:53:00
8:53 PM,60.1,51.1,72,30.20,10.0,SSW,4.6,-,N/A,,Scattered Clouds,210,2013-01-26 01:53:00
9:53 PM,59.0,52.0,78,30.21,10.0,SW,3.5,-,N/A,,Clear,220,2013-01-26 02:53:00
10:53 PM,57.9,51.1,78,30.22,10.0,Calm,Calm,-,N/A,,Clear,0,2013-01-26 03:53:00
11:53 PM,53.1,48.0,83,30.21,9.0,SSW,4.6,-,N/A,,Clear,210,2013-01-26 04:53:00